KLM1298 SAVE-SAZR

Flight info

Callsign KLM1298
Flight time 1h 25m
Altitude 34000
Route ESQ UW44 BAR UW26 NEU UZ114 OSEKO UZ127 OSA
Aircraft B737/M-VGDW/C

Departure

Time 2026-04-17 04:38
Airport Esquel Brigadier Antonio Parodi International Airport (SAVE)

Arrival

Time 2026-04-17 06:03
Airport Santa Rosa Airport (SAZR)
Time Latitude Longitude Altitude Speed Heading
2026-04-17 04:27 -42.90662 -71.14696 2628 ft 0 kts 143°
2026-04-17 04:32 -42.90665 -71.14692 2628 ft 1 kts 129°
2026-04-17 04:32 -42.90665 -71.14671 2627 ft 4 kts 90°
2026-04-17 04:33 -42.90665 -71.14630 2626 ft 1 kts 91°
2026-04-17 04:33 -42.90671 -71.14620 2626 ft 1 kts 154°
2026-04-17 04:33 -42.90674 -71.14618 2626 ft 0 kts 153°
2026-04-17 04:35 -42.90676 -71.14616 2626 ft 1 kts 153°
2026-04-17 04:35 -42.90721 -71.14584 2625 ft 12 kts 151°
2026-04-17 04:35 -42.90801 -71.14587 2625 ft 11 kts 199°
2026-04-17 04:35 -42.90870 -71.14629 2626 ft 11 kts 206°
2026-04-17 04:36 -42.90935 -71.14678 2627 ft 9 kts 210°
2026-04-17 04:36 -42.90971 -71.14738 2629 ft 5 kts 281°
2026-04-17 04:36 -42.90939 -71.14722 2628 ft 7 kts 52°
2026-04-17 04:36 -42.90930 -71.14706 2628 ft 0 kts 54°
2026-04-17 04:37 -42.90928 -71.14702 2628 ft 1 kts 54°
2026-04-17 04:37 -42.90820 -71.14478 2623 ft 70 kts 56°
2026-04-17 04:37 -42.90400 -71.13596 2603 ft 148 kts 57°
2026-04-17 04:37 -42.89777 -71.12235 3043 ft 176 kts 59°
2026-04-17 04:38 -42.89154 -71.10599 3341 ft 217 kts 63°
2026-04-17 04:38 -42.88463 -71.08732 3831 ft 219 kts 57°
2026-04-17 04:38 -42.87402 -71.07350 4725 ft 215 kts 25°
2026-04-17 04:38 -42.85940 -71.07119 5252 ft 225 kts 346°
2026-04-17 04:39 -42.84611 -71.08180 5727 ft 223 kts 320°
2026-04-17 04:39 -42.83351 -71.09369 6236 ft 224 kts 334°
2026-04-17 04:39 -42.81889 -71.10057 6759 ft 226 kts 346°
2026-04-17 04:39 -42.80313 -71.10360 7285 ft 237 kts 354°
2026-04-17 04:40 -42.78603 -71.10517 7817 ft 257 kts 355°
2026-04-17 04:40 -42.76780 -71.10641 8341 ft 265 kts 356°
2026-04-17 04:40 -42.74941 -71.10749 8867 ft 267 kts 356°
2026-04-17 04:40 -42.73084 -71.10854 9396 ft 269 kts 356°
2026-04-17 04:41 -42.71228 -71.10954 9918 ft 271 kts 355°
2026-04-17 04:41 -42.69342 -71.11056 10444 ft 274 kts 355°
2026-04-17 04:41 -42.67433 -71.11157 10972 ft 277 kts 355°
2026-04-17 04:41 -42.65508 -71.11259 11497 ft 280 kts 355°
2026-04-17 04:42 -42.63567 -71.11362 12023 ft 286 kts 355°
2026-04-17 04:42 -42.61508 -71.11474 12559 ft 305 kts 355°
2026-04-17 04:42 -42.59322 -71.11591 13088 ft 325 kts 355°
2026-04-17 04:42 -42.57010 -71.11713 13610 ft 341 kts 355°
2026-04-17 04:43 -42.54647 -71.11836 14128 ft 344 kts 355°
2026-04-17 04:43 -42.52254 -71.11961 14655 ft 346 kts 355°
2026-04-17 04:43 -42.49853 -71.12086 15178 ft 349 kts 355°
2026-04-17 04:43 -42.47403 -71.12215 15708 ft 354 kts 355°
2026-04-17 04:44 -42.44964 -71.12344 16227 ft 359 kts 355°
2026-04-17 04:44 -42.42448 -71.12476 16755 ft 363 kts 355°
2026-04-17 04:44 -42.39914 -71.12608 17258 ft 366 kts 355°
2026-04-17 04:44 -42.37372 -71.12742 17757 ft 369 kts 355°
2026-04-17 04:45 -42.34805 -71.12876 18257 ft 372 kts 355°
2026-04-17 04:45 -42.32227 -71.13011 18756 ft 375 kts 355°
2026-04-17 04:45 -42.29631 -71.13147 19253 ft 379 kts 355°
2026-04-17 04:45 -42.27002 -71.13284 19754 ft 385 kts 354°
2026-04-17 04:46 -42.24288 -71.13428 20258 ft 392 kts 354°
2026-04-17 04:46 -42.21564 -71.13570 20756 ft 396 kts 354°
2026-04-17 04:46 -42.18811 -71.13713 21256 ft 399 kts 354°
2026-04-17 04:46 -42.16045 -71.13856 21754 ft 403 kts 354°
2026-04-17 04:47 -42.13253 -71.14002 22253 ft 406 kts 354°
2026-04-17 04:47 -42.10407 -71.14150 22756 ft 410 kts 354°
2026-04-17 04:47 -42.07574 -71.14298 23253 ft 414 kts 354°
2026-04-17 04:47 -42.04689 -71.14447 23754 ft 418 kts 354°
2026-04-17 04:48 -42.01780 -71.14598 24254 ft 422 kts 354°
2026-04-17 04:48 -41.98839 -71.14750 24755 ft 426 kts 354°
2026-04-17 04:48 -41.95911 -71.14902 25248 ft 429 kts 354°
2026-04-17 04:48 -41.92892 -71.15057 25752 ft 433 kts 354°
2026-04-17 04:49 -41.89925 -71.15211 26245 ft 435 kts 354°
2026-04-17 04:49 -41.86918 -71.15365 26743 ft 436 kts 354°
2026-04-17 04:49 -41.83883 -71.15520 27245 ft 437 kts 354°
2026-04-17 04:49 -41.80835 -71.15677 27749 ft 437 kts 354°
2026-04-17 04:50 -41.77834 -71.15831 28245 ft 437 kts 354°
2026-04-17 04:50 -41.74797 -71.15987 28747 ft 437 kts 354°
2026-04-17 04:50 -41.71755 -71.16143 29249 ft 441 kts 354°
2026-04-17 04:50 -41.68719 -71.16294 29744 ft 445 kts 355°
2026-04-17 04:51 -41.65632 -71.16441 30244 ft 448 kts 355°
2026-04-17 04:51 -41.62500 -71.16591 30645 ft 454 kts 355°
2026-04-17 04:51 -41.59331 -71.16743 31020 ft 460 kts 355°
2026-04-17 04:51 -41.56145 -71.16897 31394 ft 465 kts 355°
2026-04-17 04:52 -41.52920 -71.17052 31767 ft 469 kts 355°
2026-04-17 04:52 -41.49663 -71.17207 32095 ft 471 kts 355°
2026-04-17 04:52 -41.46391 -71.17362 32342 ft 470 kts 355°
2026-04-17 04:52 -41.43143 -71.17516 32592 ft 469 kts 355°
2026-04-17 04:53 -41.39905 -71.17670 32842 ft 468 kts 355°
2026-04-17 04:53 -41.36663 -71.17825 33093 ft 466 kts 355°
2026-04-17 04:53 -41.33424 -71.17979 33344 ft 466 kts 355°
2026-04-17 04:55 -41.11354 -71.13947 33893 ft 481 kts 34°
2026-04-17 04:55 -41.06408 -71.07896 33893 ft 495 kts 49°
2026-04-17 04:56 -41.01810 -71.01070 33892 ft 497 kts 48°
2026-04-17 04:56 -40.97137 -70.94357 33893 ft 495 kts 48°
2026-04-17 04:57 -40.92519 -70.87693 33893 ft 495 kts 48°
2026-04-17 04:57 -40.87863 -70.80986 33892 ft 495 kts 48°
2026-04-17 04:58 -40.83226 -70.74322 33892 ft 495 kts 48°
2026-04-17 04:58 -40.78581 -70.67657 33892 ft 495 kts 48°
2026-04-17 04:59 -40.73926 -70.60993 33892 ft 495 kts 48°
2026-04-17 04:59 -40.69277 -70.54347 33892 ft 495 kts 48°
2026-04-17 05:00 -40.64630 -70.47715 33892 ft 495 kts 48°
2026-04-17 05:00 -40.59947 -70.41049 33892 ft 495 kts 48°
2026-04-17 05:01 -40.55278 -70.34423 33892 ft 495 kts 47°
2026-04-17 05:01 -40.50632 -70.27848 33892 ft 495 kts 47°
2026-04-17 05:02 -40.45960 -70.21248 33892 ft 495 kts 47°
2026-04-17 05:02 -40.41278 -70.14649 33892 ft 495 kts 47°
2026-04-17 05:03 -40.36593 -70.08061 33892 ft 495 kts 47°
2026-04-17 05:03 -40.31888 -70.01458 33893 ft 495 kts 47°
2026-04-17 05:04 -40.27199 -69.94892 33893 ft 495 kts 47°
2026-04-17 05:04 -40.22520 -69.88355 33893 ft 495 kts 47°
2026-04-17 05:05 -40.17837 -69.81826 33893 ft 495 kts 47°
2026-04-17 05:05 -40.13105 -69.75243 33893 ft 495 kts 47°
2026-04-17 05:06 -40.08408 -69.68722 33893 ft 495 kts 47°
2026-04-17 05:06 -40.03694 -69.62194 33893 ft 495 kts 47°
2026-04-17 05:07 -39.98995 -69.55699 33893 ft 495 kts 47°
2026-04-17 05:07 -39.94269 -69.49181 33893 ft 495 kts 47°
2026-04-17 05:08 -39.89572 -69.42716 33892 ft 495 kts 47°
2026-04-17 05:08 -39.84850 -69.36234 33892 ft 495 kts 47°
2026-04-17 05:09 -39.80101 -69.29726 33893 ft 495 kts 47°
2026-04-17 05:09 -39.75372 -69.23260 33893 ft 495 kts 47°
2026-04-17 05:10 -39.70655 -69.16824 33893 ft 495 kts 47°
2026-04-17 05:10 -39.65915 -69.10371 33893 ft 495 kts 47°
2026-04-17 05:11 -39.61163 -69.03914 33892 ft 495 kts 47°
2026-04-17 05:11 -39.56444 -68.97517 33893 ft 495 kts 47°
2026-04-17 05:12 -39.51674 -68.91064 33893 ft 495 kts 47°
2026-04-17 05:12 -39.46942 -68.84676 33892 ft 495 kts 47°
2026-04-17 05:13 -39.42184 -68.78266 33893 ft 495 kts 47°
2026-04-17 05:13 -39.37416 -68.71857 33893 ft 495 kts 47°
2026-04-17 05:14 -39.32654 -68.65469 33893 ft 495 kts 47°
2026-04-17 05:14 -39.27906 -68.59112 33893 ft 495 kts 47°
2026-04-17 05:15 -39.23129 -68.52731 33893 ft 495 kts 47°
2026-04-17 05:15 -39.18346 -68.46355 33893 ft 495 kts 47°
2026-04-17 05:16 -39.13573 -68.40005 33893 ft 495 kts 47°
2026-04-17 05:16 -39.08827 -68.33704 33892 ft 495 kts 46°
2026-04-17 05:17 -39.04028 -68.27348 33892 ft 495 kts 46°
2026-04-17 05:17 -38.99255 -68.21039 33892 ft 495 kts 46°
2026-04-17 05:18 -38.94006 -68.15373 33892 ft 496 kts 33°
2026-04-17 05:18 -38.87836 -68.11458 33893 ft 495 kts 22°
2026-04-17 05:19 -38.81542 -68.07930 33893 ft 495 kts 23°
2026-04-17 05:19 -38.75282 -68.04349 33893 ft 495 kts 23°
2026-04-17 05:20 -38.69020 -68.00816 33892 ft 495 kts 23°
2026-04-17 05:20 -38.62727 -67.97276 33892 ft 495 kts 23°
2026-04-17 05:21 -38.56442 -67.93750 33892 ft 495 kts 23°
2026-04-17 05:21 -38.50457 -67.89494 33892 ft 495 kts 38°
2026-04-17 05:22 -38.47942 -67.86489 33892 ft 494 kts 50°
2026-04-17 05:22 -38.45914 -67.83015 33895 ft 493 kts 58°
2026-04-17 05:22 -38.42271 -67.75644 33892 ft 493 kts 59°
2026-04-17 05:23 -38.38575 -67.68315 33892 ft 493 kts 59°
2026-04-17 05:23 -38.34882 -67.60986 33892 ft 492 kts 59°
2026-04-17 05:24 -38.31184 -67.53644 33892 ft 492 kts 59°
2026-04-17 05:24 -38.27510 -67.46364 33893 ft 492 kts 59°
2026-04-17 05:25 -38.23808 -67.39043 33893 ft 492 kts 59°
2026-04-17 05:25 -38.20101 -67.31726 33892 ft 492 kts 58°
2026-04-17 05:26 -38.16416 -67.24469 33892 ft 493 kts 58°
2026-04-17 05:26 -38.12705 -67.17174 33892 ft 493 kts 59°
2026-04-17 05:27 -38.08982 -67.09873 33892 ft 492 kts 59°
2026-04-17 05:27 -38.05269 -67.02608 33893 ft 492 kts 59°
2026-04-17 05:28 -38.01558 -66.95364 33893 ft 492 kts 59°
2026-04-17 05:28 -37.97832 -66.88106 33893 ft 492 kts 59°
2026-04-17 05:29 -37.94116 -66.80881 33893 ft 492 kts 59°
2026-04-17 05:29 -37.90378 -66.73632 33893 ft 492 kts 59°
2026-04-17 05:30 -37.86645 -66.66408 33892 ft 492 kts 59°
2026-04-17 05:30 -37.82903 -66.59182 33892 ft 492 kts 59°
2026-04-17 05:31 -37.79147 -66.51946 33892 ft 492 kts 59°
2026-04-17 05:31 -37.75389 -66.44724 33892 ft 492 kts 59°
2026-04-17 05:32 -37.71647 -66.37543 33543 ft 498 kts 58°
2026-04-17 05:32 -37.69752 -66.33913 33037 ft 496 kts 58°
2026-04-17 05:32 -37.67851 -66.30278 32535 ft 492 kts 58°
2026-04-17 05:33 -37.65979 -66.26702 32037 ft 489 kts 58°
2026-04-17 05:33 -37.64117 -66.23148 31538 ft 486 kts 57°
2026-04-17 05:33 -37.62266 -66.19619 31041 ft 484 kts 57°
2026-04-17 05:33 -37.60403 -66.16068 30545 ft 489 kts 57°
2026-04-17 05:34 -37.58555 -66.12553 30048 ft 487 kts 57°
2026-04-17 05:34 -37.56679 -66.08985 29548 ft 490 kts 57°
2026-04-17 05:34 -37.54787 -66.05395 29044 ft 490 kts 57°
2026-04-17 05:34 -37.52914 -66.01842 28543 ft 486 kts 57°
2026-04-17 05:35 -37.51078 -65.98364 28047 ft 481 kts 57°
2026-04-17 05:35 -37.49248 -65.94901 27549 ft 476 kts 57°
2026-04-17 05:35 -37.47417 -65.91440 27046 ft 471 kts 57°
2026-04-17 05:35 -37.45618 -65.88042 26547 ft 468 kts 57°
2026-04-17 05:36 -37.43822 -65.84653 26046 ft 464 kts 56°
2026-04-17 05:36 -37.42046 -65.81305 25547 ft 461 kts 56°
2026-04-17 05:36 -37.40265 -65.77952 25043 ft 457 kts 56°
2026-04-17 05:36 -37.38528 -65.74683 24547 ft 454 kts 56°
2026-04-17 05:37 -37.36775 -65.71390 24044 ft 450 kts 56°
2026-04-17 05:37 -37.35051 -65.68153 23544 ft 446 kts 56°
2026-04-17 05:37 -37.33337 -65.64938 23044 ft 442 kts 56°
2026-04-17 05:37 -37.31642 -65.61762 22545 ft 438 kts 56°
2026-04-17 05:38 -37.29958 -65.58611 22045 ft 435 kts 56°
2026-04-17 05:38 -37.28297 -65.55505 21548 ft 431 kts 56°
2026-04-17 05:38 -37.26616 -65.52364 21041 ft 428 kts 56°
2026-04-17 05:38 -37.24970 -65.49291 20541 ft 424 kts 56°
2026-04-17 05:39 -37.23349 -65.46267 20044 ft 420 kts 56°
2026-04-17 05:39 -37.21727 -65.43246 19543 ft 417 kts 56°
2026-04-17 05:39 -37.20129 -65.40271 19046 ft 413 kts 56°
2026-04-17 05:39 -37.18532 -65.37300 18544 ft 410 kts 56°
2026-04-17 05:40 -37.16943 -65.34349 18042 ft 406 kts 55°
2026-04-17 05:40 -37.15379 -65.31444 17543 ft 403 kts 54°
2026-04-17 05:40 -37.13830 -65.28571 17045 ft 399 kts 54°
2026-04-17 05:40 -37.12268 -65.25678 16538 ft 396 kts 54°
2026-04-17 05:41 -37.10736 -65.22841 16038 ft 392 kts 54°
2026-04-17 05:41 -37.09220 -65.20036 15538 ft 389 kts 54°
2026-04-17 05:41 -37.07719 -65.17260 15040 ft 386 kts 54°
2026-04-17 05:41 -37.06229 -65.14508 14541 ft 382 kts 54°
2026-04-17 05:42 -37.04750 -65.11780 14042 ft 379 kts 54°
2026-04-17 05:42 -37.03274 -65.09058 13540 ft 376 kts 54°
2026-04-17 05:42 -37.01817 -65.06372 13040 ft 373 kts 54°
2026-04-17 05:42 -37.00377 -65.03719 12541 ft 370 kts 54°
2026-04-17 05:43 -36.98976 -65.01143 12053 ft 366 kts 54°
2026-04-17 05:43 -36.97557 -64.98534 11555 ft 363 kts 54°
2026-04-17 05:43 -36.96151 -64.95951 11060 ft 360 kts 54°
2026-04-17 05:43 -36.94750 -64.93379 10870 ft 350 kts 54°
2026-04-17 05:44 -36.93368 -64.90843 10896 ft 357 kts 54°
2026-04-17 05:44 -36.91987 -64.88267 10889 ft 358 kts 55°
2026-04-17 05:44 -36.90632 -64.85710 10891 ft 347 kts 55°
2026-04-17 05:44 -36.89321 -64.83242 10892 ft 340 kts 55°
2026-04-17 05:45 -36.88041 -64.80837 10892 ft 326 kts 55°
2026-04-17 05:45 -36.86822 -64.78540 10892 ft 310 kts 55°
2026-04-17 05:45 -36.85664 -64.76354 10892 ft 293 kts 55°
2026-04-17 05:45 -36.84558 -64.74266 10692 ft 288 kts 55°
2026-04-17 05:46 -36.83453 -64.72177 10442 ft 286 kts 55°
2026-04-17 05:46 -36.82366 -64.70120 10194 ft 285 kts 55°
2026-04-17 05:46 -36.81268 -64.68044 9943 ft 284 kts 55°
2026-04-17 05:46 -36.80189 -64.66007 9695 ft 283 kts 55°
2026-04-17 05:47 -36.79111 -64.63977 9446 ft 281 kts 55°
2026-04-17 05:47 -36.78034 -64.61946 9196 ft 280 kts 55°
2026-04-17 05:47 -36.76956 -64.59919 8944 ft 279 kts 55°
2026-04-17 05:47 -36.75890 -64.57916 8695 ft 277 kts 55°
2026-04-17 05:48 -36.74685 -64.56083 8440 ft 273 kts 38°
2026-04-17 05:48 -36.73052 -64.55011 8195 ft 267 kts 14°
2026-04-17 05:48 -36.71249 -64.54447 7952 ft 266 kts 12°
2026-04-17 05:48 -36.69484 -64.53885 7884 ft 262 kts 13°
2026-04-17 05:49 -36.67705 -64.53316 7893 ft 265 kts 13°
2026-04-17 05:49 -36.65919 -64.52747 7890 ft 267 kts 13°
2026-04-17 05:49 -36.64127 -64.52176 7890 ft 266 kts 13°
2026-04-17 05:49 -36.62344 -64.51611 7829 ft 268 kts 13°
2026-04-17 05:50 -36.60527 -64.51038 7569 ft 266 kts 13°
2026-04-17 05:50 -36.58756 -64.50482 7320 ft 263 kts 13°
2026-04-17 05:50 -36.56993 -64.49930 7070 ft 262 kts 13°
2026-04-17 05:50 -36.55228 -64.49381 6820 ft 261 kts 13°
2026-04-17 05:51 -36.53467 -64.48837 6570 ft 260 kts 13°
2026-04-17 05:51 -36.51720 -64.48304 6320 ft 259 kts 13°
2026-04-17 05:51 -36.49976 -64.47773 6069 ft 258 kts 13°
2026-04-17 05:51 -36.48259 -64.47254 5885 ft 255 kts 13°
2026-04-17 05:52 -36.46527 -64.46734 5894 ft 256 kts 13°
2026-04-17 05:52 -36.44792 -64.46212 5776 ft 261 kts 13°
2026-04-17 05:52 -36.43039 -64.45686 5519 ft 258 kts 13°
2026-04-17 05:52 -36.41313 -64.45174 5269 ft 254 kts 13°
2026-04-17 05:53 -36.39602 -64.44669 5019 ft 253 kts 13°
2026-04-17 05:53 -36.37904 -64.44172 4880 ft 250 kts 12°
2026-04-17 05:53 -36.36195 -64.43674 4893 ft 253 kts 13°
2026-04-17 05:53 -36.34481 -64.43173 4891 ft 254 kts 12°
2026-04-17 05:54 -36.32778 -64.42673 4890 ft 254 kts 14°
2026-04-17 05:54 -36.31190 -64.41750 4865 ft 257 kts 38°
2026-04-17 05:54 -36.30033 -64.40057 4621 ft 259 kts 61°
2026-04-17 05:54 -36.29468 -64.37960 4374 ft 257 kts 79°
2026-04-17 05:55 -36.29243 -64.35784 4128 ft 256 kts 83°
2026-04-17 05:55 -36.29035 -64.33598 3903 ft 254 kts 82°
2026-04-17 05:55 -36.28824 -64.31419 3700 ft 254 kts 82°
2026-04-17 05:55 -36.28646 -64.29249 3649 ft 251 kts 88°
2026-04-17 05:56 -36.28874 -64.27150 3656 ft 245 kts 105°
2026-04-17 05:56 -36.29368 -64.25159 3653 ft 237 kts 106°
2026-04-17 05:56 -36.29865 -64.23232 3654 ft 234 kts 112°
2026-04-17 05:56 -36.30830 -64.21642 3655 ft 236 kts 143°
2026-04-17 05:57 -36.32332 -64.20900 3656 ft 236 kts 175°
2026-04-17 05:57 -36.33917 -64.21194 3661 ft 223 kts 199°
2026-04-17 05:57 -36.35363 -64.21697 3657 ft 212 kts 194°
2026-04-17 05:57 -36.36797 -64.22111 3658 ft 214 kts 193°
2026-04-17 05:58 -36.38248 -64.22489 3652 ft 214 kts 192°
2026-04-17 05:58 -36.39698 -64.22849 3653 ft 214 kts 192°
2026-04-17 05:58 -36.41163 -64.23209 3651 ft 210 kts 191°
2026-04-17 05:59 -36.43867 -64.23873 3437 ft 193 kts 192°
2026-04-17 05:59 -36.45145 -64.24187 3190 ft 184 kts 192°
2026-04-17 05:59 -36.46381 -64.24492 2947 ft 176 kts 191°
2026-04-17 05:59 -36.47521 -64.24773 2723 ft 158 kts 191°
2026-04-17 06:00 -36.48560 -64.25028 2555 ft 153 kts 192°
2026-04-17 06:00 -36.49609 -64.25287 2305 ft 152 kts 191°
2026-04-17 06:00 -36.50626 -64.25538 2090 ft 148 kts 191°
2026-04-17 06:00 -36.51632 -64.25786 1890 ft 145 kts 191°
2026-04-17 06:01 -36.52611 -64.26027 1698 ft 142 kts 191°
2026-04-17 06:01 -36.53574 -64.26264 1510 ft 141 kts 191°
2026-04-17 06:01 -36.54529 -64.26500 1322 ft 141 kts 191°
2026-04-17 06:01 -36.55486 -64.26736 1132 ft 138 kts 191°
2026-04-17 06:02 -36.56428 -64.26968 952 ft 138 kts 191°
2026-04-17 06:02 -36.57356 -64.27197 770 ft 138 kts 191°
2026-04-17 06:02 -36.58299 -64.27430 631 ft 130 kts 191°
2026-04-17 06:02 -36.59024 -64.27611 626 ft 81 kts 191°
2026-04-17 06:03 -36.59417 -64.27707 624 ft 33 kts 191°
2026-04-17 06:03 -36.59631 -64.27763 624 ft 30 kts 192°
2026-04-17 06:03 -36.59771 -64.27810 624 ft 13 kts 217°
2026-04-17 06:03 -36.59819 -64.27862 623 ft 6 kts 153°
2026-04-17 06:04 -36.59776 -64.27792 624 ft 21 kts
2026-04-17 06:04 -36.59595 -64.27753 624 ft 24 kts 10°
2026-04-17 06:04 -36.59456 -64.27724 624 ft 17 kts 14°
2026-04-17 06:04 -36.59346 -64.27692 626 ft 15 kts 11°
2026-04-17 06:05 -36.59245 -64.27669 626 ft 14 kts 10°
2026-04-17 06:05 -36.59148 -64.27651 625 ft 13 kts 356°
2026-04-17 06:05 -36.59121 -64.27711 626 ft 8 kts 246°
2026-04-17 06:05 -36.59142 -64.27772 627 ft 6 kts 246°
2026-04-17 06:06 -36.59156 -64.27812 628 ft 4 kts 244°
2026-04-17 06:06 -36.59196 -64.27859 628 ft 12 kts 205°
2026-04-17 06:06 -36.59231 -64.27897 628 ft 3 kts 263°
2026-04-17 06:06 -36.59232 -64.27911 628 ft 0 kts 269°